Погода в Дордрехте

Нидерланды     51°47′31″N   4°40′07″E
темп.,
°C
ветер,
м/с
пор.,
м/с
влажн.,
%
обл.,
%
осадки,
мм/ч
давл.,
гПа
погр.,
м
20 января, ср
ср2001:00+7ююз101783100 0.4 1002799
04:00+7ююз101885100 0.1 1000859
07:00+7ююз91882100 0.3 998853
10:00+7ююз91779100 0.1 998737
13:00+7ююз91881100 0.1 997824
16:00+8ююз91765100 0.1 994915
19:00+8ююз81966100 0.1 993850
22:00+9ююз102069100 0.0 9911098
21 января, чт
чт2101:00+9ю10217495 0.0 9861234
04:00+10ююз142578100 0.6 9821506
07:00+6зюз101965100 4.0 9871570
10:00+6ююз917740 0.0 9901291
13:00+8юз12186831 0.1 9901725
16:00+8ююз91769100 0.1 9881480
19:00+7ююз81477100 0.1 986967
22:00+5з4794100 6.6 981416
22 января, пт
пт2201:00+5з41089100 12.4 981864
04:00+5зюз7148068 0.3 986757
07:00+4юз7148338 0.3 989651
10:00+4юз713810 0.0 990788
13:00+6зюз812653 0.0 9911211
16:00+6зюз6116826 0.0 9911048
19:00+3ююз4118457 0.0 992301
22:00+2ююз489148 0.0 992198
23 января, сб
сб2301:00+3ю389567 0.0 992212
04:00+4ю399399 1.0 991508
07:00+3з4696100 1.4 992363
10:00+3зюз1293100 1.1 993190
13:00+5з3677100 1.3 995819
16:00+5зсз476746 0.1 996720
19:00+1з337523 0.1 99963
22:00+1зюз33790 0.0 99954
24 января, вс
вс2401:000юз46796 0.0 1000147
04:000ююз378149 0.0 999165
07:00−1ю368124 0.0 998155
10:00+1ююв4878100 0.0 997364
13:00+3ююв5884100 0.0 996688
16:00+2ю4794100 0.1 996416
19:00+1ююв2396100 0.2 997174
22:00+1ю2392100 0.0 998204